This demonstration page uses our WeatherBlox Daily Observations layout. Learn more.

Left ArrowRight Arrow

Hourly Observations for November 16, 2022

Temp ( °F °C ) Dew Point ( °F °C ) Humidity (%) Winds ( mph kmh ) Pressure ( in mb ) Visibility ( mi km ) Precip ( " mm )
12:56 am 00:56 Clear 15 -9.4 10 -12.2 80 80 NNW 8 13 30.48 1032 10 16 0.00 0.00
1:56 am 01:56 Clear 13 -10.6 9 -12.8 84 84 NW 10 17 30.48 1032 10 16 0.00 0.00
2:56 am 02:56 Clear 12 -11.1 8 -13.3 84 84 NW 9 15 30.49 1032 10 16 0.00 0.00
3:56 am 03:56 Clear 12 -11.1 8 -13.3 84 84 WNW 12 19 30.49 1032 10 16 0.00 0.00
4:56 am 04:56 Clear 12 -11.1 8 -13.3 84 84 NW 13 20 30.49 1033 10 16 0.00 0.00
5:56 am 05:56 Clear 11 -11.7 7 -13.9 84 84 NW 12 19 30.50 1033 10 16 0.00 0.00
6:56 am 06:56 Clear 9 -12.8 6 -14.4 88 88 NW 12 19 30.51 1033 10 16 0.00 0.00
7:56 am 07:56 Sunny 10 -12.2 5 -15 80 80 NW 12 19 30.52 1034 10 16 0.00 0.00
8:56 am 08:56 Sunny 15 -9.4 9 -12.8 76 76 NW 14 22 30.53 1034 10 16 0.00 0.00
9:56 am 09:56 Sunny 19 -7.2 11 -11.7 70 70 WNW 16 26 30.54 1034 10 16 0.00 0.00
10:56 am 10:56 Sunny 22 -5.6 12 -11.1 65 65 WNW 17 28 30.54 1034 10 16 0.00 0.00
11:56 am 11:56 Mostly Sunny 26 -3.3 13 -10.6 57 57 NW 18 30 30.51 1033 10 16 0.00 0.00
12:56 pm 12:56 Mostly Sunny 29 -1.7 14 -10 53 53 NW 20 31 30.48 1032 10 16 0.00 0.00
1:56 pm 13:56 Sunny 31 -0.6 13 -10.6 47 47 WNW 21 33 30.44 1031 10 16 0.00 0.00
2:56 pm 14:56 Sunny 33 0.6 12 -11.1 41 41 NW 15 24 30.42 1030 10 16 0.00 0.00
3:56 pm 15:56 Sunny 33 0.6 15 -9.4 47 47 NW 15 24 30.42 1030 10 16 0.00 0.00
4:56 pm 16:56 Mostly Sunny 32 0 17 -8.3 53 53 NNW 5 7 30.40 1030 10 16 0.00 0.00
5:56 pm 17:56 Mostly Cloudy 31 -0.6 17 -8.3 56 56 W 3 6 30.40 1029 10 16 0.00 0.00
6:56 pm 18:56 Cloudy 31 -0.6 18 -7.8 58 58 Calm 30.40 1029 10 16 0.00 0.00
7:56 pm 19:56 Cloudy 30 -1.1 20 -6.7 66 66 SW 6 9 30.39 1029 10 16 0.00 0.00
8:56 pm 20:56 Cloudy 30 -1.1 19 -7.2 63 63 SW 7 11 30.37 1029 10 16 0.00 0.00
9:56 pm 21:56 Cloudy 31 -0.6 20 -6.7 63 63 SW 7 11 30.36 1028 10 16 0.00 0.00
10:56 pm 22:56 Mostly Clear 29 -1.7 19 -7.2 66 66 WSW 6 9 30.35 1028 10 16 0.00 0.00
11:56 pm 23:56 Mostly Cloudy 30 -1.1 21 -6.1 69 69 WSW 7 11 30.33 1027 10 16 0.00 0.00

Powered by AerisWeather